Regional Weather Roundup
Issued by NWS

Home | Current Version | Previous Version | Graphics & Text | Print | Product List | Glossary On
Versions: 1 2 3 4 5 6 7 8 9 10 11 12 13 14 15 16 17 18 19 20 21 22 23 24 25 26 27 28 29 30 31 32 33 34 35 36 37 38 39 40 41 42 43 44 45 46 47 48 49 50
000
ASUS45 KBOU 290407
RWRCO

WEATHER ROUNDUP FOR COLORADO
NATIONAL WEATHER SERVICE DENVER/BOULDER CO
1000 PM MDT FRI AUG 28 2015

NOTE: "FAIR" INDICATES FEW OR NO CLOUDS BELOW 12000 FEET WITH NO
SIGNIFICANT WEATHER AND/OR OBSTRUCTIONS TO VISIBILITY.

COZ001>005-013-030-031-290500-
...NORTHWEST COLORADO...

CITY           SKY/WX    TMP DP  RH WIND       PRES   REMARKS
CRAIG          CLEAR     60  46  59 CALM      30.31R
HAYDEN         NOT AVBL
MEEKER         PTCLDY    58  45  62 NE9       30.32R
MOUNT WERNER   NOT AVBL
STEAMBOAT SPGS CLEAR     61  45  55 CALM      30.36S
WALDEN         CLEAR     50  41  71 SE5       30.46S
$$

COZ006>008-011-290500-
...WEST CENTRAL VALLEYS...

CITY           SKY/WX    TMP DP  RH WIND       PRES   REMARKS
GRAND JUNCTION CLEAR     72  42  34 E6        30.16R
MONTROSE       CLEAR     66  47  50 SE8       30.27R
EAGLE          CLEAR     63  43  48 E7        30.37R
RIFLE          CLEAR     64  49  57 SE5       30.24R
DELTA          CLEAR     70  49  45 E7        30.21R
NUCLA          CLEAR     68  36  30 E9        30.29R
$$

COZ017>023-064>068-290500-
...SOUTHWEST COLORADO...

CITY           SKY/WX    TMP DP  RH WIND       PRES   REMARKS
DURANGO        CLEAR     63  46  54 E7        30.27R
CORTEZ         CLEAR     65  41  41 E8        30.22R
PAGOSA SPRINGS PTCLDY    64  42  45 CALM      30.38R
TELLURIDE      CLEAR     57  40  52 SE6       30.51S
WOLF CREEK PAS MOCLDY    50  30  46 CALM      30.74R
$$

COZ009-010-012-014-032>034-037-058>063-290500-
...CENTRAL COLORADO...

CITY           SKY/WX    TMP DP  RH WIND       PRES   REMARKS
ASPEN          CLEAR     56  44  64 SW9       30.43R
BUENA VISTA    CLOUDY    64  40  40 CALM      30.48R
COPPER MTN     PTCLDY    54  34  47 S7        30.75R
BERTHOUD PASS  FAIR      41  30  65 S9        30.79S
COTTONWOOD PAS CLOUDY    59  39  47 CALM      30.61R
GUNNISON       CLEAR     59  43  55 N3        30.43R
KREMMLING      PTCLDY    54  43  66 SE3       30.44R
LEADVILLE      PTCLDY    50  34  54 CALM      30.59R
MONARCH PASS   MOCLDY    45  36  70 E23       30.81R
SALIDA         PTCLDY    67  40  37 E9        30.51R
SUNLIGHT       CLEAR     54  39  58 NE6       30.67R
WILKERSON PASS PTCLDY    46  36  66 E9        30.73R
$$

COZ069>075-290500-
...SAN LUIS VALLEY/SANGRE DE CRISTO MOUNTAINS...

CITY           SKY/WX    TMP DP  RH WIND       PRES   REMARKS
ALAMOSA        PTCLDY    64  41  42 SE14      30.38R
LA VETA PASS   MOCLDY    54  41  62 NE13      30.61R
SAGUACHE       NOT AVBL
$$

COZ035-036-038>040-290500-
...NORTHERN COLORADO FRONT RANGE...

CITY           SKY/WX    TMP DP  RH WIND       PRES   REMARKS
DENVER INTL AP PTCLDY    61  38  42 SE8       30.27R
DMNS CITY PARK   N/A     67  49  52 E7        30.27R
AURORA         CLEAR     65  39  38 SE9       30.30R
FRONT RANGE AP NOT AVBL
ERIE MUNI ARPT PTCLDY    67  47  48 S3        30.25R
BOULDER MUN AP PTCLDY    72  43  35 SW8       30.27R
CENTENNIAL     MOCLDY    67  43  41 S8        30.31R
BROOMFIELD     MOCLDY    68  45  42 W6        30.30R
FORT COLLINS   CLEAR     70  41  35 S6        30.26R
LONGMONT       CLEAR     67  49  51 SW3       30.26R
$$

COZ041-046-047-076>085-087-088-290500-
...PIKES PEAK/PALMER DIVIDE AND SOUTHERN FOOTHILLS...

CITY           SKY/WX    TMP DP  RH WIND       PRES   REMARKS
COLO. SPRINGS  MOCLDY    66  46  48 N9        30.35R
A. F. ACADEMY  MOCLDY    60  47  62 N8        30.37R
ELLICOTT       PTCLDY     1  32 100 E9        30.33R WCI -14
FALCON         PTCLDY    64  43  47 MISG      30.41R
FORT CARSON    MOCLDY    64  49  58 NW9       30.31R
LIMON          CLEAR     59  43  55 CALM      30.28R
MONUMENT HILL  CLEAR     59  39  47 SE3       30.41R
TRINIDAD       PTCLDY    68  44  42 N5        30.29R
$$

COZ042>045-048>051-090-091-290500-
...NORTHEAST COLORADO...

CITY           SKY/WX    TMP DP  RH WIND       PRES   REMARKS
GREELEY ARPT   CLEAR     61  48  63 CALM      30.24R
AKRON          CLEAR     67  42  40 NE7       30.21R
BURLINGTON     CLEAR     62  49  62 CALM      30.19R
WRAY           CLEAR     68  54  60 CALM      30.15R
STERLING       CLEAR     63  46  55 N3        30.17R
HOLYOKE        CLEAR     63  57  82 CALM      30.15S
FORT MORGAN    CLEAR     63  46  53 E8        30.22S
$$

COZ086-089-092>099-290500-
...SOUTHEAST COLORADO...

CITY           SKY/WX    TMP DP  RH WIND       PRES   REMARKS
PUEBLO         PTCLDY    75  46  35 CALM      30.22R
LA JUNTA       CLEAR     70  47  43 N8        30.19R
LAMAR          CLEAR     69  52  54 NE6       30.13R
SPRINGFIELD      N/A     67  50  54 SW5       30.18R
$$




USA.gov is the U.S. government's official web portal to all federal, state and local government web resources and services.